{"data":{"norad_id":67538,"intl_designator":"2026-014G","name":"STARLINK-36397","alt_names":[],"object_type":"PAYLOAD","status":"ACTIVE","operator":null,"country":"US","launch_date":"2026-01-22","launch_site_code":"AFWTR","launch_vehicle":null,"mission":null,"orbit_class":"UNKNOWN","rcs_meters":null,"size_class":null,"mass_kg":null,"dimensions":null,"purposes":["comms"],"wikipedia_slug":null,"has_3d_model":false,"image_url":null,"decayed_at":null,"tle_current":{"epoch":"2026-09-18T02:39:37.291392Z","epoch_age_seconds":278727,"freshness":"STALE","line1":"1 67538U 26014G   26261.11084828  .00021713  00000+0  67291-3 0  9992","line2":"2 67538  97.2852 146.5300 0002119  83.3890 276.7594 15.33446249 38278","mean_motion":15.33446249,"eccentricity":0.0002119,"inclination_deg":97.2852,"raan_deg":146.53,"arg_perigee_deg":83.389,"mean_anomaly_deg":276.7594,"bstar":0.00067291,"rev_number":3827,"period_min":93.906128169739,"perigee_km":464.08928329388,"apogee_km":466.98963337692,"semimajor_km":6843.6764583354,"source":"CELESTRAK","updated_at":"2026-09-20T09:00:43.567283Z"}}}